Location: Albany
(35.0000°S, 118.0000°E)
Time: 22:50:43
(UTC-04:00)

SJ-6B - Visible Passes

Search period start: 05 July 2015 00:00
Search period end: 15 July 2015 00:00
Orbit: 514 x 590 km, 97.8° (Epoch: 05 July)

Date Brightness Start Highest point End Pass type
(mag) Time Alt. Az. Time Alt. Az. Time Alt. Az.
05 Jul 2.9 06:33:48 31° SE 06:35:21 50° E 06:39:04 10° N visible
05 Jul 5.4 17:13:52 10° ENE 17:16:59 21° ESE 17:20:11 10° SSE visible
06 Jul 3.0 06:30:09 28° SE 06:31:45 44° E 06:35:25 10° N visible
06 Jul 6.0 08:05:55 11° WSW 08:06:08 11° WSW 08:07:00 10° W visible
06 Jul 5.6 17:10:30 10° ENE 17:13:25 19° ESE 17:16:28 10° SSE visible
06 Jul 3.9 18:44:18 10° NNW 18:48:00 29° W 18:51:41 10° SW visible
07 Jul 3.2 06:26:30 26° SE 06:28:09 39° E 06:31:45 10° N visible
07 Jul 5.8 08:02:15 12° WSW 08:02:35 12° WSW 08:03:59 10° W visible
07 Jul 5.7 17:07:10 10° ENE 17:09:52 17° ESE 17:12:42 10° SSE visible
07 Jul 3.7 18:40:37 10° NNW 18:44:25 33° W 18:48:12 10° SSW visible
08 Jul 3.3 06:22:50 23° SE 06:24:32 35° E 06:28:04 10° NNE visible
08 Jul 5.7 07:58:35 13° WSW 07:59:01 13° WSW 08:00:46 10° W visible
08 Jul 5.8 17:03:51 10° ENE 17:06:18 16° ESE 17:08:55 10° SSE visible
08 Jul 3.6 18:36:56 10° NNW 18:40:49 36° W 18:44:41 10° SSW visible
09 Jul 3.5 06:19:09 21° SE 06:20:55 31° E 06:24:21 10° NNE visible
09 Jul 5.6 07:54:54 14° WSW 07:55:26 15° WSW 07:57:30 10° WNW visible
09 Jul 5.9 17:00:35 10° E 17:02:45 14° ESE 17:05:05 10° SE visible
09 Jul 3.5 18:33:15 10° N 18:37:12 40° W 18:41:09 10° SSW visible
10 Jul 3.6 06:15:28 19° SE 06:17:17 28° E 06:20:37 10° NNE visible
10 Jul 5.5 07:51:13 16° WSW 07:51:52 16° WSW 07:54:10 10° WNW visible
10 Jul 5.9 16:57:22 10° E 16:59:10 13° ESE 17:01:11 10° SE visible
10 Jul 3.3 18:29:35 10° N 18:33:36 44° W 18:37:36 10° SSW visible
11 Jul 3.8 06:11:46 17° SE 06:13:39 25° E 06:16:52 10° NNE visible
11 Jul 5.3 07:47:31 17° SW 07:48:17 18° WSW 07:50:48 10° WNW visible
11 Jul 6.0 16:54:14 10° E 16:55:35 12° ESE 16:57:11 10° SE visible
11 Jul 3.2 18:25:56 10° N 18:29:59 50° W 18:34:03 10° SSW visible
12 Jul 3.9 06:08:04 16° SE 06:10:00 23° E 06:13:04 10° NNE visible
12 Jul 5.2 07:43:49 18° SW 07:44:41 19° WSW 07:47:23 10° WNW visible
12 Jul 6.1 16:51:21 10° ESE 16:52:01 10° ESE 16:52:56 10° SE visible
12 Jul 3.1 18:22:17 10° N 18:26:22 56° W 18:30:28 10° SSW visible
13 Jul 4.1 06:04:21 14° SE 06:06:21 20° E 06:09:16 10° NE visible
13 Jul 5.1 07:40:06 19° SW 07:41:05 21° WSW 07:43:57 10° WNW visible
13 Jul 3.0 18:18:38 10° N 18:22:45 62° W 18:26:52 10° SSW visible
14 Jul 4.2 06:00:37 12° ESE 06:02:41 18° E 06:05:25 10° NE visible
14 Jul 4.9 07:36:22 21° SW 07:37:28 23° WSW 07:40:29 10° NW visible
14 Jul 2.9 18:15:00 10° N 18:19:08 70° W 18:23:16 10° SSW visible
